Time,TemperatureF,DewpointF,PressureIn,WindDirection,WindDirectionDegrees,WindSpeedMPH,WindSpeedGustMPH,Humidity,HourlyPrecipIn,Conditions,Clouds,dailyrainin,SoftwareType,DateUTC
2013-04-06 00:29:00,23.0,15.3,29.78,WNW,292,5.8,-999.0,72,-99.99,,,0.00,Acu-Link.com,2013-04-06 04:29:00,
2013-04-06 00:59:00,22.3,14.0,29.79,SW,225,7.3,-999.0,70,-99.99,,,0.00,Acu-Link.com,2013-04-06 04:59:00,
2013-04-06 01:14:00,21.7,13.8,29.80,WSW,247,5.8,-999.0,71,-99.99,,,0.00,Acu-Link.com,2013-04-06 05:14:00,
2013-04-06 01:30:00,21.2,13.6,29.80,West,270,5.8,-999.0,72,-99.99,,,0.00,Acu-Link.com,2013-04-06 05:30:00,
2013-04-06 01:45:00,20.8,14.1,29.81,WSW,247,11.9,-999.0,75,-99.99,,,0.00,Acu-Link.com,2013-04-06 05:45:00,
2013-04-06 02:00:00,19.9,14.2,29.82,WSW,247,5.8,-999.0,78,-99.99,,,0.00,Acu-Link.com,2013-04-06 06:00:00,
2013-04-06 02:15:00,19.6,13.6,29.82,NNW,337,4.2,-999.0,77,-99.99,,,0.00,Acu-Link.com,2013-04-06 06:15:00,
2013-04-06 02:30:00,19.4,13.4,29.82,WSW,247,3.7,-999.0,77,-99.99,,,0.00,Acu-Link.com,2013-04-06 06:30:00,
2013-04-06 03:01:00,18.1,12.1,29.83,SW,225,4.2,-999.0,77,-99.99,,,0.00,Acu-Link.com,2013-04-06 07:01:00,
2013-04-06 03:46:00,16.9,8.5,29.86,West,270,10.4,-999.0,69,-99.99,,,0.00,Acu-Link.com,2013-04-06 07:46:00,
2013-04-06 04:02:00,16.3,7.6,29.87,NW,315,6.3,-999.0,68,-99.99,,,0.00,Acu-Link.com,2013-04-06 08:02:00,
2013-04-06 04:17:00,16.2,7.5,29.88,WSW,247,7.8,-999.0,68,-99.99,,,0.00,Acu-Link.com,2013-04-06 08:17:00,
2013-04-06 04:32:00,16.0,7.3,29.89,North,0,9.4,-999.0,68,-99.99,,,0.00,Acu-Link.com,2013-04-06 08:32:00,
2013-04-06 04:47:00,15.6,7.3,29.89,WNW,292,5.8,-999.0,69,-99.99,,,0.00,Acu-Link.com,2013-04-06 08:47:00,
2013-04-06 05:02:00,15.3,6.7,29.91,WNW,292,9.4,-999.0,68,-99.99,,,0.00,Acu-Link.com,2013-04-06 09:02:00,
2013-04-06 05:18:00,14.5,6.2,29.91,SW,225,7.3,-999.0,69,-99.99,,,0.00,Acu-Link.com,2013-04-06 09:18:00,
2013-04-06 05:33:00,14.4,6.4,29.93,West,270,14.5,-999.0,70,-99.99,,,0.00,Acu-Link.com,2013-04-06 09:33:00,
2013-04-06 05:48:00,14.4,6.1,29.94,NNW,337,4.7,-999.0,69,-99.99,,,0.00,Acu-Link.com,2013-04-06 09:48:00,
2013-04-06 06:03:00,14.2,5.9,29.95,WNW,292,6.8,-999.0,69,-99.99,,,0.00,Acu-Link.com,2013-04-06 10:03:00,
2013-04-06 06:18:00,14.2,7.2,29.95,WNW,292,7.8,-999.0,73,-99.99,,,0.00,Acu-Link.com,2013-04-06 10:18:00,
2013-04-06 06:33:00,13.8,5.2,29.97,NNW,337,6.3,-999.0,68,-99.99,,,0.00,Acu-Link.com,2013-04-06 10:33:00,
2013-04-06 06:49:00,13.5,4.6,29.97,SW,225,4.7,-999.0,67,-99.99,,,0.00,Acu-Link.com,2013-04-06 10:49:00,
2013-04-06 07:04:00,13.5,4.9,29.98,West,270,9.9,-999.0,68,-99.99,,,0.00,Acu-Link.com,2013-04-06 11:04:00,
2013-04-06 07:19:00,15.1,5.8,29.99,WSW,247,7.3,-999.0,66,-99.99,,,0.00,Acu-Link.com,2013-04-06 11:19:00,
2013-04-06 07:34:00,15.1,5.5,30.01,WSW,247,7.3,-999.0,65,-99.99,,,0.00,Acu-Link.com,2013-04-06 11:34:00,
2013-04-06 07:50:00,14.9,5.0,30.01,West,270,6.8,-999.0,64,-99.99,,,0.00,Acu-Link.com,2013-04-06 11:50:00,
2013-04-06 08:20:00,16.5,5.1,30.02,SW,225,4.2,-999.0,60,-99.99,,,0.00,Acu-Link.com,2013-04-06 12:20:00,
2013-04-06 08:35:00,14.7,3.4,30.02,SW,225,18.1,-999.0,60,-99.99,,,0.00,Acu-Link.com,2013-04-06 12:35:00,
2013-04-06 08:50:00,16.9,3.6,30.04,SW,225,10.9,-999.0,55,-99.99,,,0.00,Acu-Link.com,2013-04-06 12:50:00,
2013-04-06 09:36:00,19.0,3.9,30.04,SW,225,8.3,-999.0,51,-99.99,,,0.00,Acu-Link.com,2013-04-06 13:36:00,
2013-04-06 09:51:00,19.6,4.0,30.04,West,270,13.5,-999.0,50,-99.99,,,0.00,Acu-Link.com,2013-04-06 13:51:00,
2013-04-06 10:22:00,20.8,3.3,30.05,South,180,6.3,-999.0,46,-99.99,,,0.00,Acu-Link.com,2013-04-06 14:22:00,
2013-04-06 10:37:00,21.4,3.4,30.06,East,90,9.4,-999.0,45,-99.99,,,0.00,Acu-Link.com,2013-04-06 14:37:00,
2013-04-06 11:07:00,22.6,2.5,30.06,NNE,22,7.3,-999.0,41,-99.99,,,0.00,Acu-Link.com,2013-04-06 15:07:00,
2013-04-06 11:23:00,23.5,2.2,30.08,West,270,11.4,-999.0,39,-99.99,,,0.00,Acu-Link.com,2013-04-06 15:23:00,
2013-04-06 11:38:00,23.9,3.1,30.08,SW,225,6.3,-999.0,40,-99.99,,,0.00,Acu-Link.com,2013-04-06 15:38:00,
2013-04-06 11:53:00,23.2,3.0,30.08,NNW,337,7.8,-999.0,41,-99.99,,,0.00,Acu-Link.com,2013-04-06 15:53:00,
2013-04-06 12:08:00,24.3,2.9,30.09,NW,315,8.9,-999.0,39,-99.99,,,0.00,Acu-Link.com,2013-04-06 16:08:00,
2013-04-06 12:54:00,25.0,4.7,30.09,WNW,292,13.0,-999.0,41,-99.99,,,0.00,Acu-Link.com,2013-04-06 16:54:00,
2013-04-06 13:09:00,25.3,3.8,30.09,West,270,5.8,-999.0,39,-99.99,,,0.00,Acu-Link.com,2013-04-06 17:09:00,
2013-04-06 13:24:00,26.2,5.7,30.09,West,270,8.9,-999.0,41,-99.99,,,0.00,Acu-Link.com,2013-04-06 17:24:00,
2013-04-06 13:39:00,26.1,3.4,30.10,SSW,202,6.8,-999.0,37,-99.99,,,0.00,Acu-Link.com,2013-04-06 17:39:00,
2013-04-06 13:55:00,26.8,4.1,30.09,West,270,3.2,-999.0,37,-99.99,,,0.00,Acu-Link.com,2013-04-06 17:55:00,
2013-04-06 14:10:00,26.6,6.1,30.11,West,270,8.9,-999.0,41,-99.99,,,0.00,Acu-Link.com,2013-04-06 18:10:00,
2013-04-06 14:25:00,28.2,5.9,30.11,NNW,337,8.3,-999.0,38,-99.99,,,0.00,Acu-Link.com,2013-04-06 18:25:00,
2013-04-06 14:40:00,27.7,3.7,30.10,SW,225,8.9,-999.0,35,-99.99,,,0.00,Acu-Link.com,2013-04-06 18:40:00,
2013-04-06 14:56:00,28.9,5.9,30.11,SSW,202,7.3,-999.0,37,-99.99,,,0.00,Acu-Link.com,2013-04-06 18:56:00,
2013-04-06 15:11:00,28.2,5.3,30.11,West,270,6.3,-999.0,37,-99.99,,,0.00,Acu-Link.com,2013-04-06 19:11:00,
2013-04-06 15:26:00,28.0,5.7,30.10,West,270,13.5,-999.0,38,-99.99,,,0.00,Acu-Link.com,2013-04-06 19:26:00,
2013-04-06 15:56:00,30.4,5.4,30.09,North,0,5.3,-999.0,34,-99.99,,,0.00,Acu-Link.com,2013-04-06 19:56:00,
2013-04-06 16:12:00,31.1,6.0,30.11,SW,225,4.7,-999.0,34,-99.99,,,0.00,Acu-Link.com,2013-04-06 20:12:00,
2013-04-06 16:27:00,30.0,5.7,30.12,WNW,292,10.4,-999.0,35,-99.99,,,0.00,Acu-Link.com,2013-04-06 20:27:00,
2013-04-06 16:42:00,30.2,5.3,30.12,WNW,292,10.9,-999.0,34,-99.99,,,0.00,Acu-Link.com,2013-04-06 20:42:00,
2013-04-06 16:57:00,30.9,5.2,30.11,WNW,292,8.3,-999.0,33,-99.99,,,0.00,Acu-Link.com,2013-04-06 20:57:00,
2013-04-06 17:12:00,30.6,6.2,30.12,NNW,337,8.9,-999.0,35,-99.99,,,0.00,Acu-Link.com,2013-04-06 21:12:00,
2013-04-06 17:28:00,29.8,5.5,30.13,SW,225,8.3,-999.0,35,-99.99,,,0.00,Acu-Link.com,2013-04-06 21:28:00,
2013-04-06 17:43:00,29.8,5.5,30.14,West,270,3.7,-999.0,35,-99.99,,,0.00,Acu-Link.com,2013-04-06 21:43:00,
2013-04-06 18:14:00,29.5,5.9,30.13,WSW,247,4.7,-999.0,36,-99.99,,,0.00,Acu-Link.com,2013-04-06 22:14:00,
2013-04-06 18:29:00,29.1,6.1,30.13,ESE,112,5.3,-999.0,37,-99.99,,,0.00,Acu-Link.com,2013-04-06 22:29:00,
2013-04-06 18:44:00,28.2,5.3,30.13,NNW,337,6.3,-999.0,37,-99.99,,,0.00,Acu-Link.com,2013-04-06 22:44:00,
2013-04-06 18:59:00,25.5,5.6,30.14,West,270,5.3,-999.0,42,-99.99,,,0.00,Acu-Link.com,2013-04-06 22:59:00,
2013-04-06 19:14:00,24.8,5.5,30.16,West,270,3.7,-999.0,43,-99.99,,,0.00,Acu-Link.com,2013-04-06 23:14:00,
2013-04-06 19:30:00,24.1,5.4,30.18,WSW,247,2.7,-999.0,44,-99.99,,,0.00,Acu-Link.com,2013-04-06 23:30:00,
2013-04-06 19:45:00,23.4,6.6,30.17,NNW,337,0.0,-999.0,48,-99.99,,,0.00,Acu-Link.com,2013-04-06 23:45:00,
2013-04-06 20:00:00,22.1,7.6,30.18,ESE,112,1.1,-999.0,53,-99.99,,,0.00,Acu-Link.com,2013-04-07 00:00:00,
2013-04-06 20:30:00,19.8,8.2,30.19,NNE,22,0.0,-999.0,60,-99.99,,,0.00,Acu-Link.com,2013-04-07 00:30:00,
2013-04-06 20:46:00,18.9,8.1,30.20,NE,45,0.0,-999.0,62,-99.99,,,0.00,Acu-Link.com,2013-04-07 00:46:00,
2013-04-06 21:01:00,18.9,9.1,30.20,NNW,337,0.0,-999.0,65,-99.99,,,0.00,Acu-Link.com,2013-04-07 01:01:00,
2013-04-06 21:16:00,18.1,8.7,30.21,North,0,1.7,-999.0,66,-99.99,,,0.00,Acu-Link.com,2013-04-07 01:16:00,
2013-04-06 21:31:00,17.8,9.1,30.21,SSW,202,1.7,-999.0,68,-99.99,,,0.00,Acu-Link.com,2013-04-07 01:31:00,
2013-04-06 21:47:00,17.2,8.5,30.22,NNW,337,0.0,-999.0,68,-99.99,,,0.00,Acu-Link.com,2013-04-07 01:47:00,
2013-04-06 22:47:00,15.6,9.4,30.21,SSE,157,0.0,-999.0,76,-99.99,,,0.00,Acu-Link.com,2013-04-07 02:47:00,
2013-04-06 23:03:00,15.1,8.9,30.21,West,270,0.0,-999.0,76,-99.99,,,0.00,Acu-Link.com,2013-04-07 03:03:00,
2013-04-06 23:18:00,14.4,8.5,30.22,WNW,292,0.0,-999.0,77,-99.99,,,0.00,Acu-Link.com,2013-04-07 03:18:00,
2013-04-06 23:33:00,14.7,9.1,30.22,West,270,0.0,-999.0,78,-99.99,,,0.00,Acu-Link.com,2013-04-07 03:33:00,
2013-04-06 23:48:00,15.6,9.7,30.21,SW,225,0.0,-999.0,77,-99.99,,,0.00,Acu-Link.com,2013-04-07 03:48:00,